#timestamp,LO_Frequency,Hit,StdDev 
1696993215.0,286047002.1,N
1696993215.9,286047002.1,N
1696993235.8,286047002.0,N
1696993255.6,286047002.1,N
1696993275.5,286047004.0,N
1696993295.3,286047003.5,N
1696993315.1,286047006.0,N
1696993335.9,286047005.4,N
1696993355.7,286047005.6,N
1696993375.5,286047006.0,N
1696993395.4,286047005.8,N
1696993415.2,286047005.8,N
1696993435.1,286047005.6,N
1696993436.0,286047005.6,N
1696993455.8,286047004.9,N
1696993475.6,286047004.6,N
1696993495.5,286047004.9,N
1696993515.3,286047007.6,N
1696993535.1,286047007.5,N
1696993555.9,286047006.9,N
1696993575.7,286047006.3,Y
1696993595.6,286047003.8,P
1696993615.4,286047003.5,P
1696993635.2,286047003.5,P
1696993655.1,286047003.6,Y
1696993656.0,286047003.6,P
1696993675.8,286047000.7,P
1696993695.7,286047000.7,N
1696993715.5,286047000.1,N
1696993735.3,286047002.4,N
1696993755.2,286047002.7,N
1696993775.0,286047002.4,N
1696993775.9,286047002.4,N
1696993795.7,286047002.4,N
1696993815.6,286047002.7,N
1696993835.4,286047002.2,N
1696993855.3,286047002.5,N
1696993875.1,286047004.4,Y
1696993895.8,286047000.9,P
1696993915.7,286047000.5,N
1696993935.5,286047000.6,N
1696993955.4,286046999.9,N
1696993975.2,286046999.9,N
1696993995.0,286047000.4,N
1696993995.9,286047000.4,N
1696994015.8,286047000.9,N
1696994035.6,286047000.9,N
1696994055.4,286047000.0,N
1696994075.3,286047000.3,N
1696994095.1,286047000.3,N
1696994115.9,286047000.7,N
1696994135.8,286046999.9,N
1696994155.6,286046999.8,N
1696994175.4,286047000.6,N
1696994195.3,286047002.8,Y
1696994215.1,286047001.1,P
1696994235.8,286047000.9,N
1696994255.7,286047001.0,P
1696994275.5,286047000.8,Y
1696994295.4,286047001.0,P
1696994315.2,286046998.5,P
1696994335.0,286046998.6,N
1696994335.9,286046998.6,N
1696994355.8,286047000.9,N
1696994375.6,286047001.2,N
1696994395.5,286046998.5,N
1696994415.3,286047001.1,N
1696994435.1,286047000.9,N
1696994455.9,286047000.4,N
1696994475.7,286046999.9,N
1696994495.5,286047000.4,N
1696994515.4,286047000.9,N
1696994535.2,286047002.8,N
1696994555.1,286047000.0,N
1696994556.0,286047000.0,N
1696994575.8,286047000.8,N
1696994595.6,286047000.3,N
1696994615.5,286047000.0,N
1696994635.3,286047002.3,N
1696994655.1,286047002.3,N
1696994675.9,286047001.8,N
1696994695.7,286047004.3,Y
1696994715.6,286047001.8,P
1696994735.4,286047001.8,N
1696994755.2,286047002.3,P
1696994775.1,286047001.9,N
1696994776.0,286047001.9,Y
1696994795.8,286047000.7,P
1696994815.7,286047000.7,N
1696994835.5,286047000.8,N
1696994855.3,286047000.9,N
1696994875.2,286047000.4,N
1696994895.0,286047000.5,N
1696994895.9,286047000.5,N
1696994915.7,286046999.7,N
1696994935.6,286047000.1,N
1696994955.4,286047000.4,N
1696994975.3,286047002.4,Y
1696994995.1,286047001.0,P
1696995015.8,286047000.3,N
1696995035.7,286047000.5,N
1696995055.5,286047000.4,N
1696995075.4,286046999.9,N
1696995095.2,286047002.6,Y
1696995115.0,286046999.8,P
1696995115.9,286046999.8,N
1696995135.8,286047000.1,N
1696995155.6,286046999.8,N
1696995175.4,286047000.1,N
1696995195.3,286046999.7,N
1696995215.1,286046999.7,N
1696995235.9,286047002.6,Y
1696995255.7,286047002.4,P
1696995275.5,286047002.5,N
1696995295.4,286047002.5,N
1696995315.2,286047002.5,N
1696995335.0,286047001.9,N
1696995335.9,286047001.9,N
1696995355.8,286047001.7,N
1696995375.6,286046999.7,N
1696995395.5,286047001.6,N
1696995415.3,286047001.8,N
1696995435.1,286047004.0,Y
1696995455.9,286046999.7,P
1696995475.7,286047002.4,N
1696995495.6,286047001.9,N
1696995515.4,286047002.5,N
1696995535.2,286047001.9,N
1696995555.1,286047001.5,N
1696995556.0,286047001.5,N
1696995575.8,286047002.4,N
1696995595.6,286047002.0,N
1696995615.5,286047004.0,Y
1696995635.3,286047000.1,P
1696995655.2,286047000.4,N
1696995675.9,286047000.9,N
1696995695.7,286047000.4,N
1696995715.6,286047002.8,Y
1696995735.4,286047000.5,P
1696995755.2,286047000.4,P
1696995775.1,286047002.7,P
1696995776.0,286047002.7,N
1696995795.8,286047000.3,N
1696995815.7,286047000.1,N
1696995835.5,286047000.2,N
1696995855.3,286047000.3,N
1696995875.2,286047000.2,N
1696995895.0,286047000.4,N
1696995895.9,286047000.4,N
1696995915.8,286047000.3,N
1696995935.6,286047000.0,N
1696995955.4,286047000.5,N
1696995975.3,286047000.1,N
1696995995.1,286047002.8,Y
1696996015.9,286047000.6,P
1696996035.7,286047000.3,P
1696996055.5,286047000.2,N
1696996075.4,286047002.7,Y
1696996095.2,286047002.3,P
1696996115.0,286047002.7,N
1696996116.0,286047002.7,N
1696996135.8,286047002.4,N
1696996155.6,286047002.3,N
1696996175.5,286047002.1,N
1696996195.3,286047002.1,N
1696996215.1,286047002.0,N
1696996235.9,286047001.6,N
1696996255.7,286047001.3,N
1696996275.6,286047003.8,Y
1696996295.4,286047002.7,P
1696996315.2,286047002.3,P
1696996335.1,286047001.6,P
1696996336.0,286047001.6,Y
1696996355.8,286047000.3,P
1696996375.6,286047000.1,N
1696996395.5,286047002.2,N
1696996415.3,286047002.5,N
1696996435.2,286047002.1,N
1696996455.9,286047002.7,N
1696996475.7,286047002.4,N
1696996495.6,286047002.2,N
1696996515.4,286047001.4,N
1696996535.2,286047004.0,Y
1696996555.1,286047002.5,P
1696996556.0,286047002.5,P
1696996575.8,286047002.7,P
1696996595.7,286047002.5,Y
1696996615.5,286046998.9,P
1696996635.3,286046998.5,N
1696996655.2,286047001.1,N
1696996675.0,286046999.9,N
1696996675.9,286046999.9,N
1696996695.8,286047001.0,N
1696996715.6,286047000.9,N
1696996735.4,286046999.7,N
1696996755.3,286047002.6,N
1696996775.1,286047002.3,N
1696996795.8,286047002.3,N
